Tracking 25701 objects as of 4-Jul-2022
HD Live streaming from Space Station
objects crossing your sky now

ATLAS 5 CENTAUR DEB

Track ATLAS 5 CENTAUR DEB now!


NORAD ID: 44006
Int'l Code: 2014-055BM
Perigee: 7,825.0 km
Apogee: 34,777.7 km
Inclination: 21.2 °
Period: 763.5 minutes
Semi major axis: 27672 km
RCS: Unknown
Launch date: September 17, 2014
Source: United States (US)
Launch site: AIR FORCE EASTERN TEST RANGE (AFETR)

Note: This is SATELLITE DEBRIS
aabbcc
Your satellite tracking list
Your tracking list is empty




NASA's NSSDC Master Catalog

Two Line Element Set (TLE):
1 44006U 14055BM  22182.19296900 -.00000082  00000-0  00000-0 0  9991
2 44006  21.1570 276.3279 4869971 294.8227  23.0039  1.88596326 25952
Source of the keplerian elements: AFSPC